Year,Month,Day,Hour,Minute,Value (Times are PST for temperature in C)
2010,07,24,00,00,16.40
2010,07,24,00,01,16.30
2010,07,24,00,02,16.30
2010,07,24,00,03,16.30
2010,07,24,00,04,16.30
2010,07,24,00,05,16.30
2010,07,24,00,06,16.30
2010,07,24,00,07,16.30
2010,07,24,00,08,16.30
2010,07,24,00,09,16.30
2010,07,24,00,10,16.30
2010,07,24,00,11,16.30
2010,07,24,00,12,16.30
2010,07,24,00,13,16.30
2010,07,24,00,14,16.30
2010,07,24,00,15,16.30
2010,07,24,00,16,16.30
2010,07,24,00,17,16.20
2010,07,24,00,18,16.20
2010,07,24,00,19,16.20
2010,07,24,00,20,16.10
2010,07,24,00,21,16.10
2010,07,24,00,22,16.10
2010,07,24,00,23,16.10
2010,07,24,00,24,16.10
2010,07,24,00,25,16.10
2010,07,24,00,26,16.10
2010,07,24,00,27,16.10
2010,07,24,00,28,16.20
2010,07,24,00,29,16.20
2010,07,24,00,30,16.20
2010,07,24,00,31,16.30
2010,07,24,00,32,16.30
2010,07,24,00,33,16.30
2010,07,24,00,34,16.30
2010,07,24,00,35,16.40
2010,07,24,00,36,16.40
2010,07,24,00,37,16.40
2010,07,24,00,38,16.40
2010,07,24,00,39,16.40
2010,07,24,00,40,16.40
2010,07,24,00,41,16.40
2010,07,24,00,42,16.40
2010,07,24,00,43,16.40
2010,07,24,00,44,16.40
2010,07,24,00,45,16.40
2010,07,24,00,46,16.40
2010,07,24,00,47,16.40
2010,07,24,00,48,16.40
2010,07,24,00,49,16.40
2010,07,24,00,50,16.40
2010,07,24,00,51,16.40
2010,07,24,00,52,16.40
2010,07,24,00,53,16.30
2010,07,24,00,54,16.30
2010,07,24,00,55,16.30
2010,07,24,00,56,16.30
2010,07,24,00,57,16.30
2010,07,24,00,58,16.30
2010,07,24,00,59,16.30
2010,07,24,01,00,16.20
2010,07,24,01,01,16.20
2010,07,24,01,02,16.20
2010,07,24,01,03,16.20
2010,07,24,01,04,16.20
2010,07,24,01,05,16.10
2010,07,24,01,06,16.10
2010,07,24,01,07,16.00
2010,07,24,01,08,16.00
2010,07,24,01,09,15.90
2010,07,24,01,10,15.90
2010,07,24,01,11,15.80
2010,07,24,01,12,15.80
2010,07,24,01,13,15.80
2010,07,24,01,14,15.70
2010,07,24,01,15,15.70
2010,07,24,01,16,15.70
2010,07,24,01,17,15.70
2010,07,24,01,18,15.70
2010,07,24,01,19,15.70
2010,07,24,01,20,15.70
2010,07,24,01,21,15.70
2010,07,24,01,22,15.80
2010,07,24,01,23,15.80
2010,07,24,01,24,15.80
2010,07,24,01,25,15.80
2010,07,24,01,26,15.70
2010,07,24,01,27,15.70
2010,07,24,01,28,15.70
2010,07,24,01,29,15.70
2010,07,24,01,30,15.70
2010,07,24,01,31,15.70
2010,07,24,01,32,15.60
2010,07,24,01,33,15.60
2010,07,24,01,34,15.60
2010,07,24,01,35,15.60
2010,07,24,01,36,15.50
2010,07,24,01,37,15.50
2010,07,24,01,38,15.40
2010,07,24,01,39,15.40
2010,07,24,01,40,15.40
2010,07,24,01,41,15.40
2010,07,24,01,42,15.40
2010,07,24,01,43,15.40
2010,07,24,01,44,15.40
2010,07,24,01,45,15.40
2010,07,24,01,46,15.40
2010,07,24,01,47,15.40
2010,07,24,01,48,15.30
2010,07,24,01,49,15.30
2010,07,24,01,50,15.30
2010,07,24,01,51,15.30
2010,07,24,01,52,15.30
2010,07,24,01,53,15.30
2010,07,24,01,54,15.30
2010,07,24,01,55,15.30
2010,07,24,01,56,15.30
2010,07,24,01,57,15.30
2010,07,24,01,58,15.30
2010,07,24,01,59,15.30
2010,07,24,02,00,15.20
2010,07,24,02,01,15.20
2010,07,24,02,02,15.20
2010,07,24,02,03,15.20
2010,07,24,02,04,15.20
2010,07,24,02,05,15.20
2010,07,24,02,06,15.20
2010,07,24,02,07,15.20
2010,07,24,02,08,15.20
2010,07,24,02,09,15.20
2010,07,24,02,10,15.20
2010,07,24,02,11,15.20
2010,07,24,02,12,15.20
2010,07,24,02,13,15.20
2010,07,24,02,14,15.20
2010,07,24,02,15,15.20
2010,07,24,02,16,15.30
2010,07,24,02,17,15.30
2010,07,24,02,18,15.30
2010,07,24,02,19,15.30
2010,07,24,02,20,15.30
2010,07,24,02,21,15.30
2010,07,24,02,22,15.30
2010,07,24,02,23,15.20
2010,07,24,02,24,15.20
2010,07,24,02,25,15.20
2010,07,24,02,26,15.20
2010,07,24,02,27,15.10
2010,07,24,02,28,15.10
2010,07,24,02,29,15.10
2010,07,24,02,30,15.10
2010,07,24,02,31,15.00
2010,07,24,02,32,15.00
2010,07,24,02,33,15.00
2010,07,24,02,34,15.00
2010,07,24,02,35,15.00
2010,07,24,02,36,14.90
2010,07,24,02,37,14.90
2010,07,24,02,38,14.90
2010,07,24,02,39,14.90
2010,07,24,02,40,14.90
2010,07,24,02,41,14.80
2010,07,24,02,42,14.80
2010,07,24,02,43,14.80
2010,07,24,02,44,14.80
2010,07,24,02,45,14.80
2010,07,24,02,46,14.80
2010,07,24,02,47,14.80
2010,07,24,02,48,14.80
2010,07,24,02,49,14.70
2010,07,24,02,50,14.70
2010,07,24,02,51,14.70
2010,07,24,02,52,14.70
2010,07,24,02,53,14.80
2010,07,24,02,54,14.80
2010,07,24,02,55,14.80
2010,07,24,02,56,14.80
2010,07,24,02,57,14.90
2010,07,24,02,58,14.90
2010,07,24,02,59,14.90
2010,07,24,03,00,14.90
2010,07,24,03,01,14.90
2010,07,24,03,02,14.90
2010,07,24,03,03,14.90
2010,07,24,03,04,14.80
2010,07,24,03,05,14.80
2010,07,24,03,06,14.80
2010,07,24,03,07,14.80
2010,07,24,03,08,14.80
2010,07,24,03,09,14.80
2010,07,24,03,10,14.80
2010,07,24,03,11,14.80
2010,07,24,03,12,14.80
2010,07,24,03,13,14.80
2010,07,24,03,14,14.80
2010,07,24,03,15,14.70
2010,07,24,03,16,14.70
2010,07,24,03,17,14.70
2010,07,24,03,18,14.70
2010,07,24,03,19,14.70
2010,07,24,03,20,14.70
2010,07,24,03,21,14.70
2010,07,24,03,22,14.60
2010,07,24,03,23,14.60
2010,07,24,03,24,14.60
2010,07,24,03,25,14.60
2010,07,24,03,26,14.50
2010,07,24,03,27,14.50
2010,07,24,03,28,14.50
2010,07,24,03,29,14.50
2010,07,24,03,30,14.50
2010,07,24,03,31,14.50
2010,07,24,03,32,14.50
2010,07,24,03,33,14.50
2010,07,24,03,34,14.50
2010,07,24,03,35,14.50
2010,07,24,03,36,14.50
2010,07,24,03,37,14.50
2010,07,24,03,38,14.50
2010,07,24,03,39,14.50
2010,07,24,03,40,14.50
2010,07,24,03,41,14.50
2010,07,24,03,42,14.50
2010,07,24,03,43,14.40
2010,07,24,03,44,14.40
2010,07,24,03,45,14.40
2010,07,24,03,46,14.40
2010,07,24,03,47,14.40
2010,07,24,03,48,14.40
2010,07,24,03,49,14.30
2010,07,24,03,50,14.30
2010,07,24,03,51,14.30
2010,07,24,03,52,14.30
2010,07,24,03,53,14.30
2010,07,24,03,54,14.30
2010,07,24,03,55,14.30
2010,07,24,03,56,14.30
2010,07,24,03,57,14.20
2010,07,24,03,58,14.20
2010,07,24,03,59,14.20
2010,07,24,04,00,14.20
2010,07,24,04,01,14.20
2010,07,24,04,02,14.20
2010,07,24,04,03,14.20
2010,07,24,04,04,14.20
2010,07,24,04,05,14.10
2010,07,24,04,06,14.10
2010,07,24,04,07,14.10
2010,07,24,04,08,14.10
2010,07,24,04,09,14.10
2010,07,24,04,10,14.10
2010,07,24,04,11,14.10
2010,07,24,04,12,14.10
2010,07,24,04,13,14.10
2010,07,24,04,14,14.10
2010,07,24,04,15,14.10
2010,07,24,04,16,14.00
2010,07,24,04,17,14.00
2010,07,24,04,18,14.00
2010,07,24,04,19,14.00
2010,07,24,04,20,14.00
2010,07,24,04,21,14.00
2010,07,24,04,22,14.00
2010,07,24,04,23,14.00
2010,07,24,04,24,14.00
2010,07,24,04,25,14.00
2010,07,24,04,26,14.00
2010,07,24,04,27,14.00
2010,07,24,04,28,14.00
2010,07,24,04,29,14.00
2010,07,24,04,30,14.00
2010,07,24,04,31,14.00
2010,07,24,04,32,14.00
2010,07,24,04,33,14.00
2010,07,24,04,34,14.00
2010,07,24,04,35,14.00
2010,07,24,04,36,14.00
2010,07,24,04,37,14.00
2010,07,24,04,38,14.00
2010,07,24,04,39,14.00
2010,07,24,04,40,14.00
2010,07,24,04,41,14.00
2010,07,24,04,42,14.00
2010,07,24,04,43,14.00
2010,07,24,04,44,13.90
2010,07,24,04,45,13.90
2010,07,24,04,46,13.90
2010,07,24,04,47,13.90
2010,07,24,04,48,13.90
2010,07,24,04,49,13.90
2010,07,24,04,50,13.80
2010,07,24,04,51,13.80
2010,07,24,04,52,13.80
2010,07,24,04,53,13.80
2010,07,24,04,54,13.80
2010,07,24,04,55,13.80
2010,07,24,04,56,13.80
2010,07,24,04,57,13.80
2010,07,24,04,58,13.90
2010,07,24,04,59,13.90
2010,07,24,05,00,13.90
2010,07,24,05,01,13.90
2010,07,24,05,02,13.90
2010,07,24,05,03,13.90
2010,07,24,05,04,13.90
2010,07,24,05,05,13.80
2010,07,24,05,06,13.80
2010,07,24,05,07,13.80
2010,07,24,05,08,13.80
2010,07,24,05,09,13.80
2010,07,24,05,10,13.80
2010,07,24,05,11,13.80
2010,07,24,05,12,13.70
2010,07,24,05,13,13.70
2010,07,24,05,14,13.70
2010,07,24,05,15,13.70
2010,07,24,05,16,13.70
2010,07,24,05,17,13.70
2010,07,24,05,18,13.70
2010,07,24,05,19,13.70
2010,07,24,05,20,13.60
2010,07,24,05,21,13.60
2010,07,24,05,22,13.60
2010,07,24,05,23,13.60
2010,07,24,05,24,13.60
2010,07,24,05,25,13.50
2010,07,24,05,26,13.50
2010,07,24,05,27,13.50
2010,07,24,05,28,13.50
2010,07,24,05,29,13.50
2010,07,24,05,30,13.40
2010,07,24,05,31,13.40
2010,07,24,05,32,13.40
2010,07,24,05,33,13.40
2010,07,24,05,34,13.40
2010,07,24,05,35,13.40
2010,07,24,05,36,13.40
2010,07,24,05,37,13.30
2010,07,24,05,38,13.30
2010,07,24,05,39,13.30
2010,07,24,05,40,13.30
2010,07,24,05,41,13.30
2010,07,24,05,42,13.30
2010,07,24,05,43,13.30
2010,07,24,05,44,13.20
2010,07,24,05,45,13.20
2010,07,24,05,46,13.20
2010,07,24,05,47,13.20
2010,07,24,05,48,13.20
2010,07,24,05,49,13.20
2010,07,24,05,50,13.20
2010,07,24,05,51,13.20
2010,07,24,05,52,13.20
2010,07,24,05,53,13.20
2010,07,24,05,54,13.20
2010,07,24,05,55,13.20
2010,07,24,05,56,13.20
2010,07,24,05,57,13.20
2010,07,24,05,58,13.20
2010,07,24,05,59,13.20
2010,07,24,06,00,13.20
2010,07,24,06,01,13.20
2010,07,24,06,02,13.20
2010,07,24,06,03,13.20
2010,07,24,06,04,13.20
2010,07,24,06,05,13.20
2010,07,24,06,06,13.10
2010,07,24,06,07,13.10
2010,07,24,06,08,13.10
2010,07,24,06,09,13.10
2010,07,24,06,10,13.10
2010,07,24,06,11,13.10
2010,07,24,06,12,13.20
2010,07,24,06,13,13.20
2010,07,24,06,14,13.20
2010,07,24,06,15,13.30
2010,07,24,06,16,13.30
2010,07,24,06,17,13.30
2010,07,24,06,18,13.30
2010,07,24,06,19,13.30
2010,07,24,06,20,13.40
2010,07,24,06,21,13.40
2010,07,24,06,22,13.40
2010,07,24,06,23,13.40
2010,07,24,06,24,13.40
2010,07,24,06,25,13.40
2010,07,24,06,26,13.40
2010,07,24,06,27,13.40
2010,07,24,06,28,13.40
2010,07,24,06,29,13.40
2010,07,24,06,30,13.50
2010,07,24,06,31,13.50
2010,07,24,06,32,13.50
2010,07,24,06,33,13.60
2010,07,24,06,34,13.60
2010,07,24,06,35,13.60
2010,07,24,06,36,13.70
2010,07,24,06,37,13.70
2010,07,24,06,38,13.70
2010,07,24,06,39,13.80
2010,07,24,06,40,13.80
2010,07,24,06,41,13.80
2010,07,24,06,42,13.80
2010,07,24,06,43,13.90
2010,07,24,06,44,13.90
2010,07,24,06,45,14.00
2010,07,24,06,46,14.00
2010,07,24,06,47,14.10
2010,07,24,06,48,14.10
2010,07,24,06,49,14.10
2010,07,24,06,50,14.20
2010,07,24,06,51,14.20
2010,07,24,06,52,14.20
2010,07,24,06,53,14.20
2010,07,24,06,54,14.20
2010,07,24,06,55,14.30
2010,07,24,06,56,14.30
2010,07,24,06,57,14.30
2010,07,24,06,58,14.30
2010,07,24,06,59,14.40
2010,07,24,07,00,14.40
2010,07,24,07,01,14.40
2010,07,24,07,02,14.50
2010,07,24,07,03,14.50
2010,07,24,07,04,14.60
2010,07,24,07,05,14.60
2010,07,24,07,06,14.60
2010,07,24,07,07,14.70
2010,07,24,07,08,14.70
2010,07,24,07,09,14.80
2010,07,24,07,10,14.80
2010,07,24,07,11,14.90
2010,07,24,07,12,14.90
2010,07,24,07,13,15.00
2010,07,24,07,14,15.00
2010,07,24,07,15,15.10
2010,07,24,07,16,15.10
2010,07,24,07,17,15.10
2010,07,24,07,18,15.20
2010,07,24,07,19,15.20
2010,07,24,07,20,15.20
2010,07,24,07,21,15.30
2010,07,24,07,22,15.30
2010,07,24,07,23,15.30
2010,07,24,07,24,15.40
2010,07,24,07,25,15.40
2010,07,24,07,26,15.50
2010,07,24,07,27,15.50
2010,07,24,07,28,15.60
2010,07,24,07,29,15.60
2010,07,24,07,30,15.70
2010,07,24,07,31,15.80
2010,07,24,07,32,15.80
2010,07,24,07,33,15.90
2010,07,24,07,34,15.90
2010,07,24,07,35,16.00
2010,07,24,07,36,16.00
2010,07,24,07,37,16.10
2010,07,24,07,38,16.10
2010,07,24,07,39,16.20
2010,07,24,07,40,16.30
2010,07,24,07,41,16.30
2010,07,24,07,42,16.40
2010,07,24,07,43,16.40
2010,07,24,07,44,16.50
2010,07,24,07,45,16.50
2010,07,24,07,46,16.60
2010,07,24,07,47,16.60
2010,07,24,07,48,16.70
2010,07,24,07,49,16.80
2010,07,24,07,50,16.80
2010,07,24,07,51,16.90
2010,07,24,07,52,17.00
2010,07,24,07,53,17.00
2010,07,24,07,54,17.10
2010,07,24,07,55,17.20
2010,07,24,07,56,17.30
2010,07,24,07,57,17.40
2010,07,24,07,58,17.50
2010,07,24,07,59,17.60
2010,07,24,08,00,17.80
2010,07,24,08,01,18.00
2010,07,24,08,02,18.10
2010,07,24,08,03,18.20
2010,07,24,08,04,18.30
2010,07,24,08,05,18.40
2010,07,24,08,06,18.50
2010,07,24,08,07,18.60
2010,07,24,08,08,18.60
2010,07,24,08,09,18.70
2010,07,24,08,10,18.70
2010,07,24,08,11,18.70
2010,07,24,08,12,18.80
2010,07,24,08,13,18.80
2010,07,24,08,14,18.80
2010,07,24,08,15,18.80
2010,07,24,08,16,18.90
2010,07,24,08,17,18.90
2010,07,24,08,18,18.90
2010,07,24,08,19,19.00
2010,07,24,08,20,19.00
2010,07,24,08,21,19.10
2010,07,24,08,22,19.10
2010,07,24,08,23,19.10
2010,07,24,08,24,19.10
2010,07,24,08,25,19.20
2010,07,24,08,26,19.20
2010,07,24,08,27,19.20
2010,07,24,08,28,19.20
2010,07,24,08,29,19.20
2010,07,24,08,30,19.30
2010,07,24,08,31,19.30
2010,07,24,08,32,19.30
2010,07,24,08,33,19.30
2010,07,24,08,34,19.40
2010,07,24,08,35,19.40
2010,07,24,08,36,19.50
2010,07,24,08,37,19.60
2010,07,24,08,38,19.60
2010,07,24,08,39,19.70
2010,07,24,08,40,19.70
2010,07,24,08,41,19.70
2010,07,24,08,42,19.70
2010,07,24,08,43,19.80
2010,07,24,08,44,19.80
2010,07,24,08,45,19.90
2010,07,24,08,46,19.90
2010,07,24,08,47,20.00
2010,07,24,08,48,20.10
2010,07,24,08,49,20.20
2010,07,24,08,50,20.20
2010,07,24,08,51,20.30
2010,07,24,08,52,20.30
2010,07,24,08,53,20.30
2010,07,24,08,54,20.30
2010,07,24,08,55,20.40
2010,07,24,08,56,20.40
2010,07,24,08,57,20.40
2010,07,24,08,58,20.40
2010,07,24,08,59,20.50
2010,07,24,09,00,20.50
2010,07,24,09,01,20.60
2010,07,24,09,02,20.60
2010,07,24,09,03,20.60
2010,07,24,09,04,20.60
2010,07,24,09,05,20.70
2010,07,24,09,06,20.70
2010,07,24,09,07,20.80
2010,07,24,09,08,20.80
2010,07,24,09,09,20.90
2010,07,24,09,10,20.90
2010,07,24,09,11,21.00
2010,07,24,09,12,21.00
2010,07,24,09,13,21.00
2010,07,24,09,14,21.10
2010,07,24,09,15,21.10
2010,07,24,09,16,21.10
2010,07,24,09,17,21.10
2010,07,24,09,18,21.20
2010,07,24,09,19,21.20
2010,07,24,09,20,21.20
2010,07,24,09,21,21.20
2010,07,24,09,22,21.20
2010,07,24,09,23,21.30
2010,07,24,09,24,21.20
2010,07,24,09,25,21.20
2010,07,24,09,26,21.20
2010,07,24,09,27,21.20
2010,07,24,09,28,21.20
2010,07,24,09,29,21.30
2010,07,24,09,30,21.30
2010,07,24,09,31,21.30
2010,07,24,09,32,21.30
2010,07,24,09,33,21.30
2010,07,24,09,34,21.30
2010,07,24,09,35,21.30
2010,07,24,09,36,21.30
2010,07,24,09,37,21.40
2010,07,24,09,38,21.50
2010,07,24,09,39,21.50
2010,07,24,09,40,21.70
2010,07,24,09,41,21.70
2010,07,24,09,42,21.80
2010,07,24,09,43,21.80
2010,07,24,09,44,21.90
2010,07,24,09,45,21.90
2010,07,24,09,46,22.00
2010,07,24,09,47,22.00
2010,07,24,09,48,22.00
2010,07,24,09,49,22.10
2010,07,24,09,50,22.10
2010,07,24,09,51,22.10
2010,07,24,09,52,22.20
2010,07,24,09,53,22.20
2010,07,24,09,54,22.20
2010,07,24,09,55,22.20
2010,07,24,09,56,22.30
2010,07,24,09,57,22.30
2010,07,24,09,58,22.30
2010,07,24,09,59,22.30
2010,07,24,10,00,22.20
2010,07,24,10,01,22.20
2010,07,24,10,02,22.30
2010,07,24,10,03,22.30
2010,07,24,10,04,22.20
2010,07,24,10,05,22.20
2010,07,24,10,06,22.20
2010,07,24,10,07,22.20
2010,07,24,10,08,22.20
2010,07,24,10,09,22.30
2010,07,24,10,10,22.30
2010,07,24,10,11,22.30
2010,07,24,10,12,22.30
2010,07,24,10,13,22.40
2010,07,24,10,14,22.40
2010,07,24,10,15,22.40
2010,07,24,10,16,22.40
2010,07,24,10,17,22.30
2010,07,24,10,18,22.30
2010,07,24,10,19,22.30
2010,07,24,10,20,22.30
2010,07,24,10,21,22.30
2010,07,24,10,22,22.30
2010,07,24,10,23,22.30
2010,07,24,10,24,22.30
2010,07,24,10,25,22.40
2010,07,24,10,26,22.40
2010,07,24,10,27,22.40
2010,07,24,10,28,22.50
2010,07,24,10,29,22.50
2010,07,24,10,30,22.50
2010,07,24,10,31,22.50
2010,07,24,10,32,22.60
2010,07,24,10,33,22.60
2010,07,24,10,34,22.60
2010,07,24,10,35,22.70
2010,07,24,10,36,22.70
2010,07,24,10,37,22.70
2010,07,24,10,38,22.70
2010,07,24,10,39,22.80
2010,07,24,10,40,22.80
2010,07,24,10,41,22.80
2010,07,24,10,42,22.80
2010,07,24,10,43,22.80
2010,07,24,10,44,22.80
2010,07,24,10,45,22.80
2010,07,24,10,46,22.80
2010,07,24,10,47,22.80
2010,07,24,10,48,22.80
2010,07,24,10,49,22.90
2010,07,24,10,50,22.90
2010,07,24,10,51,22.90
2010,07,24,10,52,22.90
2010,07,24,10,53,22.90
2010,07,24,10,54,22.90
2010,07,24,10,55,22.90
2010,07,24,10,56,22.90
2010,07,24,10,57,22.90
2010,07,24,10,58,23.00
2010,07,24,10,59,23.00
2010,07,24,11,00,23.00
2010,07,24,11,01,23.00
2010,07,24,11,02,23.00
2010,07,24,11,03,23.00
2010,07,24,11,04,22.90
2010,07,24,11,05,22.90
2010,07,24,11,06,23.00
2010,07,24,11,07,22.90
2010,07,24,11,08,22.90
2010,07,24,11,09,22.90
2010,07,24,11,10,22.90
2010,07,24,11,11,22.90
2010,07,24,11,12,22.90
2010,07,24,11,13,22.90
2010,07,24,11,14,22.90
2010,07,24,11,15,22.90
2010,07,24,11,16,22.90
2010,07,24,11,17,22.90
2010,07,24,11,18,22.90
2010,07,24,11,19,22.90
2010,07,24,11,20,22.80
2010,07,24,11,21,22.80
2010,07,24,11,22,22.70
2010,07,24,11,23,22.70
2010,07,24,11,24,22.70
2010,07,24,11,25,22.70
2010,07,24,11,26,22.70
2010,07,24,11,27,22.70
2010,07,24,11,28,22.60
2010,07,24,11,29,22.60
2010,07,24,11,30,22.60
2010,07,24,11,31,22.60
2010,07,24,11,32,22.60
2010,07,24,11,33,22.60
2010,07,24,11,34,22.70
2010,07,24,11,35,22.70
2010,07,24,11,36,22.70
2010,07,24,11,37,22.70
2010,07,24,11,38,22.70
2010,07,24,11,39,22.70
2010,07,24,11,40,22.60
2010,07,24,11,41,22.70
2010,07,24,11,42,22.70
2010,07,24,11,43,22.80
2010,07,24,11,44,22.80
2010,07,24,11,45,22.80
2010,07,24,11,46,22.90
2010,07,24,11,47,22.90
2010,07,24,11,48,23.00
2010,07,24,11,49,23.10
2010,07,24,11,50,23.10
2010,07,24,11,51,23.00
2010,07,24,11,52,23.00
2010,07,24,11,53,23.00
2010,07,24,11,54,23.00
2010,07,24,11,55,22.90
2010,07,24,11,56,22.90
2010,07,24,11,57,22.90
2010,07,24,11,58,22.90
2010,07,24,11,59,22.90
2010,07,24,12,00,22.90
2010,07,24,12,01,22.90
2010,07,24,12,02,22.90
2010,07,24,12,03,23.00
2010,07,24,12,04,23.00
2010,07,24,12,05,23.00
2010,07,24,12,06,23.10
2010,07,24,12,07,23.10
2010,07,24,12,08,23.20
2010,07,24,12,09,23.20
2010,07,24,12,10,23.20
2010,07,24,12,11,23.20
2010,07,24,12,12,23.30
2010,07,24,12,13,23.30
2010,07,24,12,14,23.30
2010,07,24,12,15,23.30
2010,07,24,12,16,23.40
2010,07,24,12,17,23.40
2010,07,24,12,18,23.40
2010,07,24,12,19,23.40
2010,07,24,12,20,23.40
2010,07,24,12,21,23.40
2010,07,24,12,22,23.40
2010,07,24,12,23,23.40
2010,07,24,12,24,23.40
2010,07,24,12,25,23.40
2010,07,24,12,26,23.40
2010,07,24,12,27,23.40
2010,07,24,12,28,23.40
2010,07,24,12,29,23.40
2010,07,24,12,30,23.40
2010,07,24,12,31,23.40
2010,07,24,12,32,23.40
2010,07,24,12,33,23.40
2010,07,24,12,34,23.30
2010,07,24,12,35,23.30
2010,07,24,12,36,23.30
2010,07,24,12,37,23.30
2010,07,24,12,38,23.30
2010,07,24,12,39,23.40
2010,07,24,12,40,23.40
2010,07,24,12,41,23.40
2010,07,24,12,42,23.40
2010,07,24,12,43,23.40
2010,07,24,12,44,23.40
2010,07,24,12,45,23.40
2010,07,24,12,46,23.40
2010,07,24,12,47,23.40
2010,07,24,12,48,23.40
2010,07,24,12,49,23.40
2010,07,24,12,50,23.40
2010,07,24,12,51,23.40
2010,07,24,12,52,23.40
2010,07,24,12,53,23.50
2010,07,24,12,54,23.50
2010,07,24,12,55,23.50
2010,07,24,12,56,23.50
2010,07,24,12,57,23.50
2010,07,24,12,58,23.60
2010,07,24,12,59,23.60
2010,07,24,13,00,23.60
2010,07,24,13,01,23.60
2010,07,24,13,02,23.60
2010,07,24,13,03,23.70
2010,07,24,13,04,23.60
2010,07,24,13,05,23.60
2010,07,24,13,06,23.60
2010,07,24,13,07,23.70
2010,07,24,13,08,23.70
2010,07,24,13,09,23.70
2010,07,24,13,10,23.70
2010,07,24,13,11,23.70
2010,07,24,13,12,23.70
2010,07,24,13,13,23.70
2010,07,24,13,14,23.70
2010,07,24,13,15,23.70
2010,07,24,13,16,23.70
2010,07,24,13,17,23.70
2010,07,24,13,18,23.70
2010,07,24,13,19,23.70
2010,07,24,13,20,23.70
2010,07,24,13,21,23.70
2010,07,24,13,22,23.70
2010,07,24,13,23,23.70
2010,07,24,13,24,23.80
2010,07,24,13,25,23.80
2010,07,24,13,26,23.80
2010,07,24,13,27,23.80
2010,07,24,13,28,23.80
2010,07,24,13,29,23.80
2010,07,24,13,30,23.70
2010,07,24,13,31,23.60
2010,07,24,13,32,23.60
2010,07,24,13,33,23.60
2010,07,24,13,34,23.60
2010,07,24,13,35,23.60
2010,07,24,13,36,23.60
2010,07,24,13,37,23.70
2010,07,24,13,38,23.70
2010,07,24,13,39,23.80
2010,07,24,13,40,23.80
2010,07,24,13,41,23.90
2010,07,24,13,42,23.90
2010,07,24,13,43,24.00
2010,07,24,13,44,24.00
2010,07,24,13,45,24.00
2010,07,24,13,46,24.10
2010,07,24,13,47,24.10
2010,07,24,13,48,24.10
2010,07,24,13,49,24.10
2010,07,24,13,50,24.10
2010,07,24,13,51,24.10
2010,07,24,13,52,24.10
2010,07,24,13,53,24.10
2010,07,24,13,54,24.10
2010,07,24,13,55,24.10
2010,07,24,13,56,24.00
2010,07,24,13,57,24.00
2010,07,24,13,58,24.00
2010,07,24,13,59,24.10
2010,07,24,14,00,24.10
2010,07,24,14,01,24.20
2010,07,24,14,02,24.20
2010,07,24,14,03,24.20
2010,07,24,14,04,24.20
2010,07,24,14,05,24.20
2010,07,24,14,06,24.30
2010,07,24,14,07,24.30
2010,07,24,14,08,24.30
2010,07,24,14,09,24.30
2010,07,24,14,10,24.30
2010,07,24,14,11,24.30
2010,07,24,14,12,24.30
2010,07,24,14,13,24.30
2010,07,24,14,14,24.20
2010,07,24,14,15,24.20
2010,07,24,14,16,24.20
2010,07,24,14,17,24.30
2010,07,24,14,18,24.30
2010,07,24,14,19,24.30
2010,07,24,14,20,24.30
2010,07,24,14,21,24.30
2010,07,24,14,22,24.30
2010,07,24,14,23,24.30
2010,07,24,14,24,24.30
2010,07,24,14,25,24.40
2010,07,24,14,26,24.40
2010,07,24,14,27,24.50
2010,07,24,14,28,24.50
2010,07,24,14,29,24.60
2010,07,24,14,30,24.60
2010,07,24,14,31,24.60
2010,07,24,14,32,24.50
2010,07,24,14,33,24.50
2010,07,24,14,34,24.40
2010,07,24,14,35,24.40
2010,07,24,14,36,24.40
2010,07,24,14,37,24.40
2010,07,24,14,38,24.40
2010,07,24,14,39,24.40
2010,07,24,14,40,24.40
2010,07,24,14,41,24.40
2010,07,24,14,42,24.40
2010,07,24,14,43,24.40
2010,07,24,14,44,24.40
2010,07,24,14,45,24.40
2010,07,24,14,46,24.30
2010,07,24,14,47,24.30
2010,07,24,14,48,24.20
2010,07,24,14,49,24.20
2010,07,24,14,50,24.20
2010,07,24,14,51,24.20
2010,07,24,14,52,24.20
2010,07,24,14,53,24.30
2010,07,24,14,54,24.30
2010,07,24,14,55,24.40
2010,07,24,14,56,24.40
2010,07,24,14,57,24.40
2010,07,24,14,58,24.50
2010,07,24,14,59,24.50
2010,07,24,15,00,24.60
2010,07,24,15,01,24.60
2010,07,24,15,02,24.70
2010,07,24,15,03,24.70
2010,07,24,15,04,24.70
2010,07,24,15,05,24.70
2010,07,24,15,06,24.70
2010,07,24,15,07,24.80
2010,07,24,15,08,24.80
2010,07,24,15,09,24.80
2010,07,24,15,10,24.70
2010,07,24,15,11,24.60
2010,07,24,15,12,24.60
2010,07,24,15,13,24.60
2010,07,24,15,14,24.60
2010,07,24,15,15,24.60
2010,07,24,15,16,24.60
2010,07,24,15,17,24.50
2010,07,24,15,18,24.40
2010,07,24,15,19,24.40
2010,07,24,15,20,24.40
2010,07,24,15,21,24.50
2010,07,24,15,22,24.50
2010,07,24,15,23,24.60
2010,07,24,15,24,24.70
2010,07,24,15,25,24.70
2010,07,24,15,26,24.80
2010,07,24,15,27,24.80
2010,07,24,15,28,24.90
2010,07,24,15,29,24.90
2010,07,24,15,30,24.90
2010,07,24,15,31,24.90
2010,07,24,15,32,24.90
2010,07,24,15,33,24.90
2010,07,24,15,34,24.90
2010,07,24,15,35,24.80
2010,07,24,15,36,24.80
2010,07,24,15,37,24.80
2010,07,24,15,38,24.80
2010,07,24,15,39,24.90
2010,07,24,15,40,24.90
2010,07,24,15,41,24.90
2010,07,24,15,42,24.90
2010,07,24,15,43,24.90
2010,07,24,15,44,24.90
2010,07,24,15,45,24.90
2010,07,24,15,46,24.90
2010,07,24,15,47,24.90
2010,07,24,15,48,24.80
2010,07,24,15,49,24.80
2010,07,24,15,50,24.80
2010,07,24,15,51,24.70
2010,07,24,15,52,24.70
2010,07,24,15,53,24.70
2010,07,24,15,54,24.70
2010,07,24,15,55,24.70
2010,07,24,15,56,24.70
2010,07,24,15,57,24.70
2010,07,24,15,58,24.80
2010,07,24,15,59,24.80
2010,07,24,16,00,24.80
2010,07,24,16,01,24.80
2010,07,24,16,02,24.80
2010,07,24,16,03,24.80
2010,07,24,16,04,24.80
2010,07,24,16,05,24.80
2010,07,24,16,06,24.80
2010,07,24,16,07,24.70
2010,07,24,16,08,24.70
2010,07,24,16,09,24.60
2010,07,24,16,10,24.60
2010,07,24,16,11,24.50
2010,07,24,16,12,24.50
2010,07,24,16,13,24.50
2010,07,24,16,14,24.50
2010,07,24,16,15,24.60
2010,07,24,16,16,24.60
2010,07,24,16,17,24.60
2010,07,24,16,18,24.60
2010,07,24,16,19,24.60
2010,07,24,16,20,24.60
2010,07,24,16,21,24.60
2010,07,24,16,22,24.60
2010,07,24,16,23,24.60
2010,07,24,16,24,24.60
2010,07,24,16,25,24.60
2010,07,24,16,26,24.60
2010,07,24,16,27,24.70
2010,07,24,16,28,24.70
2010,07,24,16,29,24.70
2010,07,24,16,30,24.80
2010,07,24,16,31,24.80
2010,07,24,16,32,24.80
2010,07,24,16,33,24.80
2010,07,24,16,34,24.80
2010,07,24,16,35,24.90
2010,07,24,16,36,24.90
2010,07,24,16,37,24.90
2010,07,24,16,38,24.90
2010,07,24,16,39,24.90
2010,07,24,16,40,24.90
2010,07,24,16,41,24.90
2010,07,24,16,42,24.90
2010,07,24,16,43,24.90
2010,07,24,16,44,24.90
2010,07,24,16,45,24.90
2010,07,24,16,46,24.90
2010,07,24,16,47,24.90
2010,07,24,16,48,24.90
2010,07,24,16,49,24.90
2010,07,24,16,50,24.80
2010,07,24,16,51,24.80
2010,07,24,16,52,24.80
2010,07,24,16,53,24.80
2010,07,24,16,54,24.70
2010,07,24,16,55,24.70
2010,07,24,16,56,24.70
2010,07,24,16,57,24.60
2010,07,24,16,58,24.60
2010,07,24,16,59,24.60
2010,07,24,17,00,24.60
2010,07,24,17,01,24.60
2010,07,24,17,02,24.60
2010,07,24,17,03,24.60
2010,07,24,17,04,24.60
2010,07,24,17,05,24.50
2010,07,24,17,06,24.50
2010,07,24,17,07,24.50
2010,07,24,17,08,24.40
2010,07,24,17,09,24.40
2010,07,24,17,10,24.40
2010,07,24,17,11,24.40
2010,07,24,17,12,24.50
2010,07,24,17,13,24.60
2010,07,24,17,14,24.60
2010,07,24,17,15,24.70
2010,07,24,17,16,24.70
2010,07,24,17,17,24.70
2010,07,24,17,18,24.70
2010,07,24,17,19,24.70